ARG1840 SAZB-SABE

Flight info

Callsign ARG1840
Flight time 0h 56m
Altitude 33000
Route PULA1C PULAS UW22 VALOS VALO9R
Aircraft B738/M-V/N

Departure

Time 2026-05-08 23:02
Airport Comandante Espora Airport (SAZB)

Arrival

Time 2026-05-08 23:58
Airport Aeroparque Jorge Newbery (SABE)
Time Latitude Longitude Altitude Speed Heading
2026-05-08 22:46 -38.71633 -62.16329 255 ft 0 kts 310°
2026-05-08 22:56 -38.71636 -62.16324 255 ft 2 kts 310°
2026-05-08 22:56 -38.71646 -62.16308 255 ft 3 kts 310°
2026-05-08 22:56 -38.71658 -62.16290 255 ft 3 kts 310°
2026-05-08 22:57 -38.71673 -62.16273 255 ft 3 kts 327°
2026-05-08 22:57 -38.71691 -62.16262 255 ft 3 kts 345°
2026-05-08 22:57 -38.71698 -62.16260 255 ft 0 kts 350°
2026-05-08 22:58 -38.71697 -62.16260 255 ft 0 kts 350°
2026-05-08 22:59 -38.71684 -62.16261 255 ft 7 kts
2026-05-08 22:59 -38.71643 -62.16216 255 ft 9 kts 71°
2026-05-08 22:59 -38.71646 -62.16124 255 ft 12 kts 96°
2026-05-08 23:00 -38.71626 -62.16026 255 ft 12 kts 54°
2026-05-08 23:00 -38.71578 -62.15928 255 ft 14 kts 64°
2026-05-08 23:00 -38.71557 -62.15853 255 ft 0 kts 81°
2026-05-08 23:00 -38.71557 -62.15852 255 ft 0 kts 81°
2026-05-08 23:01 -38.71556 -62.15840 255 ft 8 kts 84°
2026-05-08 23:01 -38.71606 -62.15755 255 ft 9 kts 161°
2026-05-08 23:01 -38.71613 -62.15752 255 ft 3 kts 162°
2026-05-08 23:01 -38.71984 -62.15614 256 ft 115 kts 163°
2026-05-08 23:02 -38.73053 -62.15212 289 ft 181 kts 163°
2026-05-08 23:02 -38.74312 -62.14768 679 ft 198 kts 165°
2026-05-08 23:02 -38.75586 -62.13950 1097 ft 210 kts 140°
2026-05-08 23:02 -38.76373 -62.12347 1569 ft 221 kts 109°
2026-05-08 23:03 -38.76426 -62.10377 2029 ft 228 kts 79°
2026-05-08 23:03 -38.75689 -62.08564 2498 ft 232 kts 51°
2026-05-08 23:03 -38.74431 -62.07298 2967 ft 234 kts 28°
2026-05-08 23:03 -38.72915 -62.06406 3539 ft 255 kts 27°
2026-05-08 23:04 -38.71248 -62.05123 4375 ft 293 kts 31°
2026-05-08 23:04 -38.69459 -62.03730 5076 ft 318 kts 30°
2026-05-08 23:04 -38.67527 -62.02195 5770 ft 325 kts 30°
2026-05-08 23:04 -38.65602 -62.00627 6517 ft 334 kts 30°
2026-05-08 23:05 -38.63637 -61.98998 7269 ft 343 kts 30°
2026-05-08 23:05 -38.61607 -61.97308 8029 ft 349 kts 30°
2026-05-08 23:05 -38.59516 -61.95620 8790 ft 355 kts 29°
2026-05-08 23:05 -38.57432 -61.93971 9535 ft 359 kts 28°
2026-05-08 23:06 -38.55273 -61.92280 10293 ft 364 kts 28°
2026-05-08 23:06 -38.53093 -61.90582 11049 ft 368 kts 28°
2026-05-08 23:06 -38.50902 -61.88879 11799 ft 372 kts 28°
2026-05-08 23:06 -38.48665 -61.87144 12556 ft 376 kts 28°
2026-05-08 23:07 -38.46416 -61.85402 13308 ft 380 kts 28°
2026-05-08 23:07 -38.44158 -61.83656 14055 ft 384 kts 28°
2026-05-08 23:07 -38.41865 -61.81885 14806 ft 389 kts 28°
2026-05-08 23:07 -38.39541 -61.80092 15559 ft 393 kts 28°
2026-05-08 23:08 -38.37172 -61.78267 16318 ft 397 kts 28°
2026-05-08 23:08 -38.34799 -61.76441 17070 ft 401 kts 28°
2026-05-08 23:08 -38.32406 -61.74602 17821 ft 405 kts 28°
2026-05-08 23:08 -38.29980 -61.72739 18575 ft 409 kts 28°
2026-05-08 23:09 -38.27544 -61.70871 19325 ft 413 kts 28°
2026-05-08 23:09 -38.25042 -61.68956 20086 ft 417 kts 28°
2026-05-08 23:09 -38.22557 -61.67057 20830 ft 421 kts 28°
2026-05-08 23:09 -38.20031 -61.65131 21492 ft 427 kts 28°
2026-05-08 23:10 -38.17437 -61.63159 22132 ft 432 kts 28°
2026-05-08 23:10 -38.14844 -61.61193 22759 ft 437 kts 28°
2026-05-08 23:10 -38.12248 -61.59230 23381 ft 440 kts 28°
2026-05-08 23:10 -38.09612 -61.57241 24007 ft 443 kts 28°
2026-05-08 23:11 -38.06938 -61.55228 24637 ft 446 kts 28°
2026-05-08 23:11 -38.04253 -61.53212 25261 ft 450 kts 28°
2026-05-08 23:11 -38.01540 -61.51181 25808 ft 455 kts 27°
2026-05-08 23:11 -37.98788 -61.49126 26321 ft 460 kts 27°
2026-05-08 23:12 -37.96015 -61.47062 26826 ft 463 kts 27°
2026-05-08 23:12 -37.93226 -61.44990 27327 ft 466 kts 27°
2026-05-08 23:12 -37.90449 -61.42933 27823 ft 468 kts 27°
2026-05-08 23:12 -37.87633 -61.40851 28324 ft 470 kts 27°
2026-05-08 23:13 -37.84806 -61.38725 28827 ft 471 kts 29°
2026-05-08 23:13 -37.82059 -61.36454 29332 ft 472 kts 31°
2026-05-08 23:13 -37.79363 -61.34078 29838 ft 472 kts 33°
2026-05-08 23:13 -37.76701 -61.31649 30339 ft 471 kts 33°
2026-05-08 23:14 -37.74047 -61.29189 30751 ft 473 kts 34°
2026-05-08 23:14 -37.71410 -61.26733 31031 ft 476 kts 34°
2026-05-08 23:14 -37.68720 -61.24234 31289 ft 480 kts 34°
2026-05-08 23:14 -37.66007 -61.21727 31542 ft 482 kts 33°
2026-05-08 23:15 -37.63308 -61.19249 31792 ft 485 kts 33°
2026-05-08 23:15 -37.60576 -61.16758 32042 ft 486 kts 33°
2026-05-08 23:15 -37.57811 -61.14255 32294 ft 488 kts 33°
2026-05-08 23:15 -37.55060 -61.11782 32543 ft 489 kts 33°
2026-05-08 23:16 -37.52284 -61.09298 32768 ft 490 kts 33°
2026-05-08 23:16 -37.49484 -61.06807 32907 ft 493 kts 33°
2026-05-08 23:16 -37.43829 -61.01811 33001 ft 497 kts 32°
2026-05-08 23:17 -37.38179 -60.96850 32996 ft 496 kts 32°
2026-05-08 23:17 -37.32515 -60.91900 32995 ft 491 kts 32°
2026-05-08 23:18 -37.26952 -60.87058 32995 ft 488 kts 32°
2026-05-08 23:18 -37.21346 -60.82195 32996 ft 487 kts 32°
2026-05-08 23:19 -37.15798 -60.77397 32996 ft 486 kts 32°
2026-05-08 23:19 -37.10236 -60.72598 32996 ft 485 kts 32°
2026-05-08 23:20 -37.04653 -60.67792 32996 ft 485 kts 32°
2026-05-08 23:20 -36.99095 -60.63016 32996 ft 485 kts 32°
2026-05-08 23:21 -36.93543 -60.58254 32996 ft 485 kts 32°
2026-05-08 23:21 -36.87973 -60.53485 32996 ft 485 kts 32°
2026-05-08 23:22 -36.82426 -60.48744 32996 ft 485 kts 32°
2026-05-08 23:22 -36.76854 -60.43890 32996 ft 486 kts 35°
2026-05-08 23:23 -36.71720 -60.38400 32997 ft 488 kts 41°
2026-05-08 23:23 -36.66917 -60.32411 32996 ft 489 kts 44°
2026-05-08 23:24 -36.62302 -60.26215 32996 ft 489 kts 46°
2026-05-08 23:24 -36.57780 -60.19907 32996 ft 490 kts 46°
2026-05-08 23:25 -36.53282 -60.13574 32996 ft 490 kts 46°
2026-05-08 23:25 -36.48764 -60.07211 32996 ft 490 kts 46°
2026-05-08 23:26 -36.44262 -60.00884 32996 ft 490 kts 46°
2026-05-08 23:26 -36.39738 -59.94545 32996 ft 489 kts 46°
2026-05-08 23:27 -36.35224 -59.88241 32996 ft 489 kts 46°
2026-05-08 23:27 -36.30696 -59.81938 32996 ft 489 kts 46°
2026-05-08 23:28 -36.26148 -59.75630 32996 ft 489 kts 46°
2026-05-08 23:28 -36.21600 -59.69342 32996 ft 489 kts 46°
2026-05-08 23:29 -36.17087 -59.63121 32831 ft 485 kts 46°
2026-05-08 23:29 -36.14843 -59.60035 32640 ft 482 kts 46°
2026-05-08 23:29 -36.12592 -59.56943 32440 ft 479 kts 46°
2026-05-08 23:30 -36.10379 -59.53906 32240 ft 477 kts 46°
2026-05-08 23:30 -36.08165 -59.50871 32039 ft 474 kts 46°
2026-05-08 23:30 -36.05964 -59.47859 31839 ft 472 kts 46°
2026-05-08 23:30 -36.03754 -59.44838 31469 ft 473 kts 46°
2026-05-08 23:31 -36.02300 -59.42853 31074 ft 463 kts 46°
2026-05-08 23:31 -35.99503 -59.39028 30240 ft 436 kts 45°
2026-05-08 23:31 -35.98167 -59.37197 29820 ft 425 kts 45°
2026-05-08 23:31 -35.95594 -59.33666 28980 ft 406 kts 45°
2026-05-08 23:32 -35.94344 -59.31949 28559 ft 398 kts 45°
2026-05-08 23:32 -35.91922 -59.28619 27720 ft 385 kts 45°
2026-05-08 23:32 -35.90741 -59.26994 27300 ft 379 kts 45°
2026-05-08 23:32 -35.88990 -59.24582 26667 ft 371 kts 45°
2026-05-08 23:33 -35.87302 -59.22257 26044 ft 363 kts 45°
2026-05-08 23:33 -35.85795 -59.20179 25479 ft 358 kts 45°
2026-05-08 23:33 -35.84138 -59.17895 24847 ft 352 kts 45°
2026-05-08 23:33 -35.82528 -59.15673 24223 ft 347 kts 45°
2026-05-08 23:34 -35.80924 -59.13460 23593 ft 342 kts 45°
2026-05-08 23:34 -35.79360 -59.11303 22971 ft 338 kts 45°
2026-05-08 23:34 -35.77796 -59.09143 22342 ft 334 kts 45°
2026-05-08 23:34 -35.76264 -59.07030 21719 ft 330 kts 45°
2026-05-08 23:35 -35.74750 -59.04940 21096 ft 327 kts 45°
2026-05-08 23:35 -35.73232 -59.02845 20467 ft 324 kts 45°
2026-05-08 23:35 -35.71735 -59.00780 19841 ft 322 kts 45°
2026-05-08 23:35 -35.70245 -58.98725 19213 ft 319 kts 45°
2026-05-08 23:36 -35.68781 -58.96707 18591 ft 317 kts 45°
2026-05-08 23:36 -35.67309 -58.94680 17962 ft 314 kts 45°
2026-05-08 23:36 -35.65865 -58.92694 17341 ft 312 kts 45°
2026-05-08 23:36 -35.64414 -58.90701 16713 ft 310 kts 45°
2026-05-08 23:37 -35.62981 -58.88735 16089 ft 308 kts 45°
2026-05-08 23:37 -35.61559 -58.86788 15467 ft 306 kts 45°
2026-05-08 23:37 -35.60128 -58.84831 14837 ft 305 kts 45°
2026-05-08 23:37 -35.58723 -58.82913 14216 ft 303 kts 45°
2026-05-08 23:38 -35.57306 -58.80982 13587 ft 301 kts 45°
2026-05-08 23:38 -35.55915 -58.79088 12966 ft 300 kts 45°
2026-05-08 23:38 -35.54527 -58.77202 12344 ft 299 kts 45°
2026-05-08 23:38 -35.53129 -58.75305 11717 ft 298 kts 45°
2026-05-08 23:39 -35.51752 -58.73441 11098 ft 297 kts 45°
2026-05-08 23:39 -35.50365 -58.71566 10473 ft 296 kts 45°
2026-05-08 23:39 -35.48977 -58.69694 9865 ft 294 kts 45°
2026-05-08 23:39 -35.47592 -58.67929 9521 ft 282 kts 38°
2026-05-08 23:40 -35.46060 -58.66428 9174 ft 280 kts 33°
2026-05-08 23:40 -35.44474 -58.65057 8827 ft 280 kts 31°
2026-05-08 23:40 -35.42868 -58.63729 8480 ft 280 kts 30°
2026-05-08 23:40 -35.41249 -58.62414 8130 ft 279 kts 30°
2026-05-08 23:41 -35.39631 -58.61108 7781 ft 278 kts 30°
2026-05-08 23:41 -35.38003 -58.59799 7428 ft 277 kts 30°
2026-05-08 23:41 -35.36401 -58.58512 7124 ft 275 kts 30°
2026-05-08 23:41 -35.34794 -58.57223 6822 ft 274 kts 30°
2026-05-08 23:42 -35.33205 -58.55948 6601 ft 271 kts 30°
2026-05-08 23:42 -35.31632 -58.54688 6402 ft 270 kts 30°
2026-05-08 23:42 -35.30063 -58.53434 6204 ft 269 kts 30°
2026-05-08 23:42 -35.28513 -58.52198 6012 ft 267 kts 30°
2026-05-08 23:43 -35.26927 -58.50941 5894 ft 275 kts 30°
2026-05-08 23:43 -35.25286 -58.49654 5780 ft 287 kts 30°
2026-05-08 23:43 -35.23558 -58.48311 5655 ft 293 kts 30°
2026-05-08 23:43 -35.21837 -58.46983 5507 ft 296 kts 30°
2026-05-08 23:44 -35.20097 -58.45650 5359 ft 296 kts 30°
2026-05-08 23:44 -35.18340 -58.44315 5209 ft 296 kts 30°
2026-05-08 23:44 -35.16581 -58.42988 5058 ft 295 kts 29°
2026-05-08 23:44 -35.14840 -58.41686 4913 ft 294 kts 29°
2026-05-08 23:45 -35.13105 -58.40399 4815 ft 292 kts 29°
2026-05-08 23:45 -35.11355 -58.39111 4714 ft 292 kts 29°
2026-05-08 23:45 -35.09620 -58.37842 4614 ft 291 kts 29°
2026-05-08 23:45 -35.07889 -58.36585 4514 ft 290 kts 29°
2026-05-08 23:46 -35.06143 -58.35325 4414 ft 290 kts 29°
2026-05-08 23:46 -35.04400 -58.34076 4313 ft 289 kts 29°
2026-05-08 23:46 -35.02675 -58.32848 4214 ft 289 kts 29°
2026-05-08 23:46 -35.00925 -58.31610 4113 ft 289 kts 29°
2026-05-08 23:47 -34.99179 -58.30382 4012 ft 288 kts 29°
2026-05-08 23:47 -34.97497 -58.29206 3898 ft 266 kts 29°
2026-05-08 23:47 -34.95956 -58.28133 3780 ft 245 kts 29°
2026-05-08 23:47 -34.94544 -58.27155 3680 ft 226 kts 29°
2026-05-08 23:48 -34.93226 -58.26247 3584 ft 210 kts 29°
2026-05-08 23:48 -34.91991 -58.25400 3487 ft 197 kts 29°
2026-05-08 23:48 -34.90812 -58.24596 3398 ft 190 kts 29°
2026-05-08 23:48 -34.89663 -58.23817 3317 ft 188 kts 29°
2026-05-08 23:49 -34.88517 -58.23042 3241 ft 188 kts 29°
2026-05-08 23:49 -34.87383 -58.22278 3168 ft 188 kts 29°
2026-05-08 23:49 -34.86230 -58.21501 3093 ft 188 kts 29°
2026-05-08 23:49 -34.85090 -58.20735 3019 ft 188 kts 29°
2026-05-08 23:50 -34.83935 -58.19958 2944 ft 188 kts 29°
2026-05-08 23:50 -34.82788 -58.19187 2868 ft 188 kts 29°
2026-05-08 23:50 -34.81639 -58.18416 2793 ft 188 kts 29°
2026-05-08 23:50 -34.80494 -58.17648 2718 ft 188 kts 29°
2026-05-08 23:51 -34.79354 -58.16885 2642 ft 187 kts 27°
2026-05-08 23:51 -34.78063 -58.16655 2269 ft 197 kts 348°
2026-05-08 23:51 -34.76874 -58.17517 2280 ft 199 kts 320°
2026-05-08 23:51 -34.75835 -58.18575 2443 ft 194 kts 320°
2026-05-08 23:52 -34.74823 -58.19596 2491 ft 183 kts 319°
2026-05-08 23:52 -34.73916 -58.20563 2520 ft 165 kts 319°
2026-05-08 23:52 -34.73052 -58.21459 2446 ft 159 kts 320°
2026-05-08 23:52 -34.72209 -58.22292 2358 ft 158 kts 321°
2026-05-08 23:53 -34.71333 -58.23116 2271 ft 157 kts 323°
2026-05-08 23:53 -34.70459 -58.23913 2231 ft 156 kts 323°
2026-05-08 23:53 -34.69577 -58.24680 2205 ft 157 kts 325°
2026-05-08 23:53 -34.68673 -58.25446 2204 ft 156 kts 324°
2026-05-08 23:54 -34.67820 -58.26246 2190 ft 155 kts 322°
2026-05-08 23:54 -34.67001 -58.27083 2141 ft 156 kts 317°
2026-05-08 23:54 -34.66169 -58.27969 2102 ft 159 kts 320°
2026-05-08 23:55 -34.64496 -58.29690 2096 ft 157 kts 320°
2026-05-08 23:55 -34.63652 -58.30517 2069 ft 157 kts 321°
2026-05-08 23:55 -34.62792 -58.31332 2056 ft 153 kts 322°
2026-05-08 23:55 -34.61982 -58.32134 1917 ft 148 kts 320°
2026-05-08 23:56 -34.61205 -58.32961 1654 ft 149 kts 317°
2026-05-08 23:56 -34.60465 -58.33815 1465 ft 145 kts 316°
2026-05-08 23:56 -34.59771 -58.34703 1260 ft 144 kts 310°
2026-05-08 23:56 -34.59197 -58.35675 1062 ft 140 kts 303°
2026-05-08 23:57 -34.58659 -58.36645 860 ft 137 kts 304°
2026-05-08 23:57 -34.58112 -58.37631 688 ft 142 kts 304°
2026-05-08 23:57 -34.57561 -58.38612 528 ft 141 kts 304°
2026-05-08 23:57 -34.57012 -58.39602 337 ft 141 kts 304°
2026-05-08 23:58 -34.56480 -58.40564 41 ft 133 kts 304°
2026-05-08 23:58 -34.56054 -58.41330 28 ft 73 kts 304°
2026-05-08 23:58 -34.55922 -58.41570 27 ft 17 kts 304°
2026-05-08 23:58 -34.55869 -58.41664 27 ft 11 kts 304°
2026-05-08 23:59 -34.55833 -58.41729 27 ft 9 kts 303°
2026-05-08 23:59 -34.55799 -58.41792 27 ft 9 kts 303°
2026-05-08 23:59 -34.55751 -58.41839 27 ft 9 kts 352°
2026-05-08 23:59 -34.55718 -58.41798 27 ft 8 kts 98°
2026-05-09 00:00 -34.55739 -58.41733 27 ft 9 kts 116°
2026-05-09 00:00 -34.55769 -58.41663 27 ft 10 kts 117°
2026-05-09 00:00 -34.55801 -58.41587 27 ft 9 kts 117°
2026-05-09 00:00 -34.55822 -58.41538 27 ft 4 kts 117°
2026-05-09 00:01 -34.55828 -58.41526 27 ft 1 kts 117°
2026-05-09 00:01 -34.55840 -58.41498 27 ft 6 kts 117°
2026-05-09 00:01 -34.55851 -58.41471 27 ft 0 kts 117°
2026-05-09 00:01 -34.55860 -58.41450 27 ft 5 kts 117°
2026-05-09 00:02 -34.55884 -58.41395 27 ft 9 kts 117°
2026-05-09 00:02 -34.55887 -58.41327 27 ft 8 kts 49°
2026-05-09 00:02 -34.55844 -58.41292 27 ft 6 kts 26°
2026-05-09 00:02 -34.55816 -58.41312 27 ft 4 kts 300°
2026-05-09 00:03 -34.55797 -58.41350 27 ft 6 kts 301°
2026-05-09 00:03 -34.55774 -58.41394 27 ft 5 kts 301°
2026-05-09 00:03 -34.55755 -58.41420 27 ft 3 kts 334°
2026-05-09 00:03 -34.55739 -58.41418 27 ft 3 kts 19°
2026-05-09 00:04 -34.55725 -58.41410 27 ft 1 kts 24°
2026-05-09 00:04 -34.55724 -58.41409 27 ft 0 kts 24°
2026-05-09 00:06 -38.71633 -62.16328 246 ft 0 kts 310°